KO5S Weather Reports


time (UTC)temp
C
wind
direction
speed
KPH
gust
KPH
rain 1hr
cm
rain 24hr
cm
rain mn
cm
humidity
%
barometer
mb
20260506080816 19 0.0 0.0 0.00 0.00 0.00 93 1008.3
20260506072816 19 0.0 0.0 0.00 0.00 0.00 92 1008.5
20260506071816 19 0.0 1.6 0.00 0.00 0.00 92 1008.6
20260506070856 19 0.0 0.0 0.00 0.00 0.00 92 1008.8
20260506061816 19 0.0 0.0 0.00 0.00 0.00 92 1009.3
20260506060816 19 0.0 0.0 0.00 0.00 0.00 92 1009.2
20260506050816 19 0.0 0.0 0.00 0.00 0.00 91 1009.6
20260506044815 19 0.0 0.0 0.00 0.00 0.00 91 1009.8
20260506043815 19 0.0 0.0 0.00 0.00 0.00 90 1009.7
20260506042815 19 0.0 0.0 0.00 0.00 0.00 90 1009.5
20260506041815 20 0.0 0.0 0.00 0.00 0.00 90 1009.6
20260506040815 20 0.0 0.0 0.00 0.00 0.00 90 1009.6
20260506035815 20 0.0 0.0 0.00 0.00 0.00 90 1009.7
20260506034815 20 0.0 0.0 0.00 0.00 0.00 89 1009.6
20260506033815 20 0.0 0.0 0.00 0.00 0.00 90 1009.7
20260506032815 20 0.0 0.0 0.00 0.00 0.00 89 1009.8
20260506031815 20 0.0 0.0 0.00 0.00 0.00 89 1009.7
20260506030816 20 0.0 0.0 0.00 0.00 0.00 89 1009.8
20260506025815 20 0.0 0.0 0.00 0.00 0.00 89 1009.6
20260506024815 20 0.0 0.0 0.00 0.00 0.00 88 1009.6
20260506023816 20 0.0 0.0 0.00 0.00 0.00 88 1009.5
20260506022815 20 0.0 0.0 0.00 0.00 0.00 88 1009.4
20260506021815 21 0.0 0.0 0.00 0.00 0.00 88 1009.2
20260506020815 21 0.0 0.0 0.00 0.00 0.00 88 1008.9
20260506015835 21 0.0 0.0 0.00 0.00 0.00 88 1008.9
20260506014815 21 0.0 0.0 0.00 0.00 0.00 87 1008.9
20260506013835 21 0.0 0.0 0.00 0.00 0.00 87 1009.1
20260506012815 21 0.0 0.0 0.00 0.00 0.00 87 1009.1
20260506011815 21 0.0 0.0 0.00 0.00 0.00 86 1009.2
20260506010815 21 0.0 0.0 0.00 0.00 0.00 86 1009.1
20260506005815 21 0.0 0.0 0.00 0.00 0.00 85 1009.0
20260506004815 22 0.0 0.0 0.00 0.00 0.00 85 1008.9
20260506003815 22 0.0 0.0 0.00 0.00 0.00 84 1008.8
20260506002835 22 0.0 3.2 0.00 0.00 0.00 84 1008.9
20260506001815 22 0.0 0.0 0.00 0.00 0.00 83 1008.8
20260506000835 22 188 3.2 9.7 0.00 0.00 0.00 83 1008.8
20260505235815 22 168 4.8 8.0 0.00 0.00 0.00 82 1008.8
20260505234815 23 188 6.4 11.3 0.00 0.00 0.00 81 1008.8
20260505233815 23 151 4.8 9.7 0.00 0.00 0.00 80 1008.8
20260505232815 23 162 8.0 11.3 0.00 0.00 0.00 80 1008.8
20260505231814 23 170 6.4 16.1 0.00 0.00 0.00 79 1008.8
20260505230815 23 171 6.4 11.3 0.00 0.00 0.00 78 1008.8
20260505225815 24 147 8.0 9.7 0.00 0.00 0.00 77 1008.6
20260505224814 24 174 8.0 17.7 0.00 0.00 0.00 76 1008.7
20260505223815 24 154 12.9 16.1 0.00 0.00 0.00 75 1008.5
20260505222815 25 152 14.5 19.3 0.00 0.00 0.00 74 1008.6
20260505221816 25 191 8.0 14.5 0.00 0.00 0.00 73 1008.7
20260505220815 25 153 11.3 17.7 0.00 0.00 0.00 74 1008.6
20260505215815 25 144 14.5 20.9 0.00 0.00 0.00 73 1008.5
20260505214814 25 172 11.3 17.7 0.00 0.00 0.00 73 1008.4
20260505213817 26 171 9.7 17.7 0.00 0.00 0.00 72 1008.5
20260505212838 25 161 11.3 17.7 0.00 0.00 0.00 72 1008.5
20260505211817 26 162 12.9 17.7 0.00 0.00 0.00 73 1008.5
20260505210816 26 152 9.7 14.5 0.00 0.00 0.00 71 1008.4
20260505205817 26 197 11.3 17.7 0.00 0.00 0.00 71 1008.5
20260505204817 26 177 9.7 16.1 0.00 0.00 0.00 71 1008.5
20260505203837 26 162 11.3 24.1 0.00 0.00 0.00 69 1008.7
20260505202817 26 149 14.5 22.5 0.00 0.00 0.00 70 1008.8
20260505201817 26 159 9.7 19.3 0.00 0.00 0.00 69 1008.8
20260505200816 26 162 11.3 20.9 0.00 0.00 0.00 70 1009.0
20260505195817 26 156 14.5 19.3 0.00 0.00 0.00 70 1009.2
20260505194816 26 171 9.7 20.9 0.00 0.00 0.00 67 1009.4
20260505193816 26 170 8.0 9.7 0.00 0.00 0.00 70 1009.5
20260505192817 26 156 11.3 20.9 0.00 0.00 0.00 68 1009.5
20260505191815 26 154 8.0 16.1 0.00 0.00 0.00 69 1009.6
20260505190817 26 157 9.7 22.5 0.00 0.00 0.00 68 1009.7
20260505185817 26 177 14.5 24.1 0.00 0.00 0.00 67 1009.8
20260505184816 26 147 12.9 19.3 0.00 0.00 0.00 68 1009.8
20260505183816 25 169 11.3 14.5 0.00 0.00 0.00 70 1009.9
20260505182816 26 149 14.5 22.5 0.00 0.00 0.00 67 1009.9
20260505181816 26 156 12.9 17.7 0.00 0.00 0.00 69 1010.0
20260505180857 26 231 8.0 12.9 0.00 0.00 0.00 70 1009.9
20260505175816 25 171 9.7 19.3 0.00 0.00 0.00 71 1010.1
20260505174816 26 154 11.3 17.7 0.00 0.00 0.00 72 1010.0
20260505173836 25 162 12.9 19.3 0.00 0.00 0.00 72 1010.0
20260505172837 26 169 6.4 12.9 0.00 0.00 0.00 67 1010.2
20260505171817 26 154 8.0 14.5 0.00 0.00 0.00 68 1010.2
20260505170816 26 157 11.3 20.9 0.00 0.00 0.00 70 1010.2
20260505165816 25 181 6.4 12.9 0.00 0.00 0.00 72 1010.2
20260505164816 25 164 9.7 16.1 0.00 0.00 0.00 70 1010.2
20260505163816 26 189 8.0 14.5 0.00 0.00 0.00 70 1010.2
20260505162816 25 169 9.7 17.7 0.00 0.00 0.00 71 1010.2
20260505161816 25 158 14.5 19.3 0.00 0.00 0.00 71 1010.2
20260505160816 25 167 11.3 14.5 0.00 0.00 0.00 71 1010.1
20260505152836 25 178 9.7 14.5 0.00 0.00 0.00 70 1010.2
20260505151817 25 171 6.4 12.9 0.00 0.00 0.00 72 1010.3
20260505150816 24 195 6.4 11.3 0.00 0.00 0.00 71 1010.2
20260505124816 15 0.0 0.0 0.00 0.00 0.00 93 1010.3
20260505123816 15 0.0 0.0 0.00 0.00 0.00 93 1010.2
20260505122816 14 0.0 0.0 0.00 0.00 0.00 93 1010.4
20260505121816 13 0.0 0.0 0.00 0.00 0.00 93 1010.2
20260505120817 13 0.0 0.0 0.00 0.00 0.00 93 1010.2
20260505115816 12 0.0 0.0 0.00 0.00 0.00 93 1010.1
20260505114816 12 0.0 0.0 0.00 0.00 0.00 93 1010.0
20260505113816 12 0.0 0.0 0.00 0.00 0.00 93 1009.9
20260505112816 12 0.0 0.0 0.00 0.00 0.00 93 1009.8
20260505111816 12 0.0 0.0 0.00 0.00 0.00 93 1009.8
20260505110816 11 0.0 0.0 0.00 0.00 0.00 93 1009.7
20260505101816 11 0.0 0.0 0.00 0.00 0.00 93 1009.4
20260505100816 11 0.0 0.0 0.00 0.00 0.00 93 1009.5
20260505095836 11 0.0 0.0 0.00 0.00 0.00 93 1009.5
20260505094836 11 0.0 0.0 0.00 0.00 0.00 92 1009.5
20260505093836 11 0.0 0.0 0.00 0.00 0.00 93 1009.4
20260505092816 11 0.0 0.0 0.00 0.00 0.00 92 1009.4
20260505091816 11 0.0 0.0 0.00 0.00 0.00 92 1009.3
20260505090816 11 0.0 0.0 0.00 0.00 0.00 92 1009.5
20260505085816 11 0.0 0.0 0.00 0.00 0.00 92 1009.4
20260505084816 11 0.0 0.0 0.00 0.00 0.00 92 1009.5
20260505083816 11 0.0 0.0 0.00 0.00 0.00 92 1009.6
20260505082816 11 0.0 0.0 0.00 0.00 0.00 92 1009.7
20260505081816 11 0.0 0.0 0.00 0.00 0.00 92 1009.6